CW9119 Weather Reports


Display with metric or nautical units.
time (UTC)temp
F
wind
direction
speed
MPH
gust
MPH
rain 1hr
in
rain 24hr
in
rain mn
in
humidity
%
barometer
mb
20260509173111 51 68 0.0 0.0 0.00 0.00 0.00 79 1017.5
20260509170111 51 68 0.0 4.0 0.00 0.00 0.00 78 1017.7
20260509165111 51 68 0.0 4.0 0.00 0.00 0.00 77 1017.7
20260509161111 52 68 0.0 0.0 0.00 0.00 0.00 76 1017.6
20260509154111 53 68 0.0 1.0 0.00 0.00 0.00 74 1017.7
20260509152110 53 68 0.0 0.0 0.00 0.00 0.00 71 1017.6
20260509151110 54 68 0.0 0.0 0.00 0.00 0.00 72 1017.7
20260509150110 54 68 0.0 1.0 0.00 0.00 0.00 70 1017.8
20260509145110 54 68 0.0 0.0 0.00 0.00 0.00 70 1017.7
20260509143110 54 68 0.0 4.0 0.00 0.00 0.00 70 1017.8
20260509142110 54 68 0.0 0.0 0.00 0.00 0.00 70 1017.9
20260509141110 53 68 0.0 0.0 0.00 0.00 0.00 69 1017.9
20260509140110 53 68 0.0 0.0 0.00 0.00 0.00 69 1017.9
20260509135110 53 67 0.0 0.0 0.00 0.00 0.00 69 1017.9
20260509134110 53 68 0.0 0.0 0.00 0.00 0.00 71 1018.0
20260509133110 53 68 2.0 5.0 0.00 0.00 0.00 69 1017.9
20260509132110 53 65 0.0 0.0 0.00 0.00 0.00 69 1017.9
20260509131110 53 65 0.0 0.0 0.00 0.00 0.00 69 1018.1
20260509124114 53 61 1.0 5.0 0.00 0.00 0.00 69 1018.3
20260509123114 53 57 0.0 4.0 0.00 0.00 0.00 69 1018.5
20260509122114 53 46 1.0 5.0 0.00 0.00 0.00 68 1018.5
20260509120113 53 48 0.0 1.0 0.00 0.00 0.00 70 1018.5
20260509115113 53 48 0.0 0.0 0.00 0.00 0.00 68 1018.5
20260509112113 53 45 0.0 4.0 0.00 0.00 0.00 68 1018.5
20260509111113 53 44 0.0 0.0 0.00 0.00 0.00 68 1018.6
20260509110113 52 44 0.0 1.0 0.00 0.00 0.00 69 1018.6
20260509101113 52 20 0.0 0.0 0.00 0.00 0.00 73 1018.7
20260509095113 51 20 0.0 1.0 0.00 0.00 0.00 72 1018.5
20260509094113 51 20 0.0 0.0 0.00 0.00 0.00 69 1018.5
20260509093113 51 20 0.0 0.0 0.00 0.00 0.00 71 1018.6
20260509091113 51 20 0.0 4.0 0.00 0.00 0.00 71 1018.3
20260509085112 51 19 0.0 1.0 0.00 0.00 0.00 71 1018.4
20260509084112 51 19 0.0 0.0 0.00 0.00 0.00 72 1018.5
20260509082112 50 19 0.0 2.0 0.00 0.00 0.00 78 1018.3
20260509081112 50 18 1.0 5.0 0.00 0.00 0.00 82 1018.3
20260509080112 50 18 0.0 1.0 0.00 0.00 0.00 83 1018.3
20260509073112 49 58 0.0 4.0 0.00 0.00 0.00 86 1018.3
20260509072112 49 59 2.0 0.0 0.00 0.00 0.00 88 1018.3
20260509071112 48 59 1.0 5.0 0.00 0.00 0.00 89 1018.4
20260509063112 47 63 0.0 1.0 0.00 0.00 0.00 93 1018.3
20260509062111 46 63 0.0 0.0 0.00 0.00 0.00 94 1018.3
20260509061111 46 63 0.0 4.0 0.00 0.00 0.00 94 1018.3
20260509054111 44 63 0.0 1.0 0.00 0.00 0.00 94 1018.0
20260509053111 44 63 0.0 0.0 0.00 0.00 0.00 94 1018.1
20260509052111 44 63 0.0 0.0 0.00 0.00 0.00 94 1018.1
20260509050111 43 63 0.0 0.0 0.00 0.00 0.00 94 1018.0
20260509045111 43 63 0.0 0.0 0.00 0.00 0.00 94 1018.0
20260509043111 43 63 0.0 0.0 0.00 0.00 0.00 94 1017.5
20260509040111 42 63 0.0 0.0 0.00 0.00 0.00 94 1017.5
20260509034110 42 63 0.0 0.0 0.00 0.00 0.00 94 1017.6
20260509032110 42 63 0.0 0.0 0.00 0.00 0.00 94 1017.6
20260509031110 42 63 0.0 0.0 0.00 0.00 0.00 94 1017.8
20260509030110 42 63 0.0 0.0 0.00 0.00 0.00 94 1017.7
20260509024110 42 63 0.0 0.0 0.00 0.00 0.00 94 1017.7
20260509023110 42 63 0.0 0.0 0.00 0.00 0.00 93 1017.7
20260509022110 42 63 0.0 0.0 0.00 0.00 0.00 93 1017.6
20260509021110 43 63 0.0 0.0 0.00 0.00 0.00 93 1017.7
20260509020110 43 63 0.0 0.0 0.00 0.00 0.00 94 1017.7
20260509005110 42 63 0.0 0.0 0.00 0.00 0.00 93 1017.6
20260509003110 42 63 0.0 0.0 0.00 0.00 0.00 93 1017.5
20260509001110 42 63 0.0 0.0 0.00 0.00 0.00 93 1017.7
20260509000110 42 63 0.0 0.0 0.00 0.00 0.00 93 1017.8
20260508235110 42 63 0.0 0.0 0.00 0.00 0.00 93 1017.7
20260508233110 42 63 0.0 0.0 0.00 0.00 0.00 93 1017.7
20260508232110 42 63 0.0 0.0 0.00 0.00 0.00 93 1017.7
20260508230109 42 63 0.0 0.0 0.00 0.00 0.00 93 1017.7
20260508222109 42 63 0.0 0.0 0.00 0.00 0.00 92 1017.8
20260508220109 42 63 0.0 0.0 0.00 0.00 0.00 92 1017.8
20260508214113 42 63 0.0 0.0 0.00 0.00 0.00 91 1017.7
20260508213113 42 63 0.0 0.0 0.00 0.00 0.00 91 1017.7
20260508212113 42 63 0.0 0.0 0.00 0.00 0.00 91 1017.7
20260508203112 42 63 0.0 0.0 0.00 0.00 0.00 90 1017.4
20260508202112 42 63 0.0 0.0 0.00 0.00 0.00 90 1017.3
20260508200112 43 63 0.0 0.0 0.00 0.00 0.00 89 1017.2
20260508194112 44 63 0.0 0.0 0.00 0.00 0.00 89 1017.3
20260508190112 45 63 0.0 4.0 0.00 0.00 0.00 88 1017.0
20260508184112 46 63 0.0 4.0 0.00 0.00 0.00 87 1016.9
20260508183112 46 58 1.0 5.0 0.00 0.00 0.00 87 1016.7
20260508180111 47 32 1.0 6.0 0.00 0.00 0.00 86 1016.7
20260508175111 48 30 0.0 4.0 0.00 0.00 0.00 85 1016.6
20260508174111 48 26 2.0 7.0 0.00 0.00 0.00 85 1016.4